Location: Newark
(16.3678°N, 77.8722°E)
Time: 05:47:35
(UTC+00:00)

S-56A Canister/Altair - Pass Details

Date: 16 December 2019
Orbit: 634 x 2498 km, 38.9° (Epoch: 19 January)

Event Time Altitude Azimuth Distance (km) Brightness Sun altitude
Rises 06:55:20 0° 305° (NW) 5,993 11.9 50.2°
Reaches altitude 10° 06:59:58 10° 315° (NW) 5,101 11.6 50.1°
Maximum altitude 07:12:47 32° 13° (NNE) 3,599 10.9 49.7°
Drops below altitude 10° 07:24:27 10° 72° (ENE) 4,665 11.4 49.1°
Sets 07:28:25 0° 82° (E) 5,435 11.7 48.9°
